Regional Weather Roundup
Issued by NWS Upton, NY

Current Version | Previous Version | Text Only | Print | Product List | Glossary On
Versions: 1 2 3 4 5 6 7 8 9 10 11 12 13 14 15 16 17 18 19 20 21 22 23 24 25 26 27 28 29 30 31 32 33 34 35 36 37 38 39 40 41 42 43 44 45 46 47 48 49 50
000 ASUS41 KOKX 202105 RWROKX REGIONAL WEATHER ROUNDUP NATIONAL WEATHER SERVICE NEW YORK NY 500 PM EDT MON OCT 20 2014 NOTE: "FAIR" INDICATES FEW OR NO CLOUDS BELOW 12,000 FEET WITH NO SIGNIFICANT WEATHER AND/OR OBSTRUCTIONS TO VISIBILITY. NYZ071-072-176-178-NJZ106-104-202200- NEW YORK CITY METRO AREA CITY SKY/WX TMP DP RH WIND PRES REMARKS CENTRAL PARK PTSUNNY 59 38 45 VRB3 30.00F LAGUARDIA APRT PTSUNNY 60 38 43 S8 29.97F KENNEDY INTL PTSUNNY 61 40 45 S15 29.99F NEWARK/LIBERTY PTSUNNY 61 37 41 S10 29.98F BRNX BOT. GARD N/A 59 39 47 E5 29.97F TETERBORO PTSUNNY 60 36 40 S9 29.96F $$ NYZ177-179-078>081-202200- LONG ISLAND NEW YORK CITY SKY/WX TMP DP RH WIND PRES REMARKS FARMINGDALE MOSUNNY 59 39 47 SW14 30.00F ISLIP PTSUNNY 58 40 51 S14G20 29.98F SHIRLEY MOSUNNY 58 41 53 SW10 30.00F WESTHAMPTON MOSUNNY 58 41 53 SW10G18 30.02F MONTAUK POINT N/A 56 42 59 SW9G17 30.02F $$ NYZ052-065-067-202200- HUDSON VALLEY CITY SKY/WX TMP DP RH WIND PRES REMARKS WHITE PLAINS MOSUNNY 56 36 47 S8 29.97F NEWBURGH NOT AVBL MONTGOMERY PTSUNNY 57 35 43 SW13 29.95S POUGHKEEPSIE CLOUDY 59 35 40 VRB6 29.95F ALBANY PTSUNNY 52 34 50 S13 29.94F $$ NJZ001-105-106-008-010-013-015-019>022-104-202200- NEW JERSEY CITY SKY/WX TMP DP RH WIND PRES REMARKS NEWARK/LIBERTY PTSUNNY 61 37 41 S10 29.98F TETERBORO PTSUNNY 60 36 40 S9 29.96F CALDWELL PTSUNNY 59 35 40 VRB5 29.97F MORRISTOWN PTSUNNY 61 39 44 SW12 29.97F SOMERVILLE MOSUNNY 61 37 41 VRB7 29.95F SUSSEX PTSUNNY 59 37 44 SW8 29.96S ANDOVER N/A 57 36 45 S3 29.96F TRENTON MOSUNNY 59 36 42 SW8 29.98F MILLVILLE MOSUNNY 62 45 53 VRB5 29.98F ATLANTIC CITY MOSUNNY 62 44 51 S10 29.99F WRIGHTSTOWN MOSUNNY 61 38 42 SW10 29.97F TOMS RIVER SUNNY 63 36 36 SW6 29.99F BELMAR MOSUNNY 61 39 44 SE5 29.99F $$ PAZ047>061-062-071-202200- EASTERN PENNSYLVANIA CITY SKY/WX TMP DP RH WIND PRES REMARKS PHILADELPHIA PTSUNNY 62 40 44 S6 29.98F ALLENTOWN PTSUNNY 59 38 45 S13 29.96F SCRANTON CLOUDY 57 35 43 S8 29.93S $$ CTZ002-004>006-009-010-012-RIZ004-006-007-MAZ004-011-015-202200- SOUTHERN NEW ENGLAND IN CT CITY SKY/WX TMP DP RH WIND PRES REMARKS BRADLEY INTL CLOUDY 54 35 48 SW3 29.97F HARTFORD CLOUDY 54 37 52 S10 29.99S DANBURY PTSUNNY 56 31 38 SW10 29.98F WTRBRY/OXFORD CLOUDY 54 36 50 SW8 29.97F BRIDGEPORT MOSUNNY 60 39 45 SW15 29.99F MERIDEN CLOUDY 55 37 50 S10 29.99F NEW HAVEN PTSUNNY 60 39 45 SW7 29.99F CHESTER FAIR 54 39 58 SW5 30.00F GROTON PTCLDY 55 41 59 SW10 30.00F WILLIMANTIC MOCLDY 55 37 50 SW7 30.00S IN RI CITY SKY/WX TMP DP RH WIND PRES REMARKS PROVIDENCE MOCLDY 55 36 48 W6 29.99F BLOCK ISLAND PTCLDY 55 41 58 SW16G24 30.01F WESTERLY PTCLDY 55 39 54 SW10 30.01F IN MA CITY SKY/WX TMP DP RH WIND PRES REMARKS BOSTON PTCLDY 55 31 39 SW15 29.97R WORCESTER CLOUDY 50 33 52 SW13 29.97R WESTFIELD MOCLDY 53 35 50 S5 29.97S PROVINCETOWN PTCLDY 54 36 50 SW14 30.00R NANTUCKET PTCLDY 54 41 61 SW17 30.02F $$ ANZ330-335-338-340-345-350-353-355-202200- COASTAL MARINE OBSERVATIONS STATION/POSITION TIME SKY/WX TEMP WIND PRES VSBY WAVE AIR SEA DIR/SP/G HT/PER (UTC) (F) (DEG/KT/KT) (MB) (MI) (FT/S) NY HARB ENTRANCE NOT AVBL 4S FIRE IS 2100 63 N/A 3/ 4 20S FIRE ISLAND 2100 59 64 210/ 16/ 19 1016.1 3/ 4 23SW MTP 2100 N/A 3/ 4 HUDSON CANYON 2100 60 66 220/ 14/ 17 1016.8 2/ 4 EXECUTION ROCKS 2000 59 64 190/ 12/ 17 N/A WESTERN LI SOUND 2100 58 180/ 12/ 16 N/A 1 CENTRAL LI SOUND 2000 58 64 220/ 16/ 19 N/A 2/ 3 EASTERN LI SOUND 2000 57 64 230/ 14/ 17 N/A ROBBINS REEF 2100 60 210/ 12/ 15 1014.0 $$ >>>>>>>>>>>>>>>>>>>>>>>>>>>> KEY <<<<<<<<<<<<<<<<<<<<<<<<<<< > < > SKY/WX - SKY CONDITION/PRESENT WEATHER < > TMP - TEMPERATURE IN FAHRENHEIT < > DP - DEWPOINT IN FAHRENHEIT < > RH - RELATIVE HUMIDITY IN PERCENT < > WIND - DIRECTION AND SPEED IN MPH < > PRES - MEAN SEA LEVEL PRESSURE IN INCHES OF HG < > WCI - WIND CHILL INDEX < > VSB - VISIBILITY IN MILES < > HX - HEAT INDEX < > TC - TEMPERATURE IN CELSIUS < > VRB - VARIABLE WIND DIRECTION < > < >>>>>>>>>>>>>>>>>>>>>>>>>>>> KEY <<<<<<<<<<<<<<<<<<<<<<<<<<<

USA.gov is the U.S. government's official web portal to all federal, state and local government web resources and services.